Location: Bourguignon
(47.8056°N, 6.1636°E)
Time: 22:13:21
(UTC+00:00)

Daily predictions for brighter satellites

Satellite Brightness Start Highest point End
(mag) Time Altitude Azimuth Time Altitude Azimuth Time Altitude Azimuth
Cosmos 1943 Rocket 2.5 17:49:13 10° S 17:54:26 43° ESE 17:59:43 10° NE
SJ-11-01 4.3 17:52:56 10° SSE 17:57:36 85° ENE 18:02:18 10° NNW
Cosmos 1461 2.8 17:54:33 10° NW 17:58:35 87° SW 18:02:30 10° SE
Lacrosse 5 rocket 1.7 17:54:50 10° NW 17:59:24 65° NNE 18:03:50 10° ESE
CZ-2C R/B 2.7 17:58:10 10° NNE 18:03:43 75° ESE 18:09:19 10° S
Cosmos 2278 Rocket 3.6 17:58:23 10° SW 18:03:46 43° NW 18:09:12 10° NNE
Cosmos 1378 Rocket 3.6 17:59:39 10° N 18:04:04 66° E 18:08:28 10° SSE
CZ-4B R/B 2.7 18:02:13 10° NE 18:04:21 17° E 18:06:31 10° SE
Landsat 5 3.8 18:01:04 10° N 18:04:57 69° WNW 18:08:56 10° SSW
Cosmos 1908 Rocket 4.1 18:01:36 10° SSE 18:05:44 38° E 18:09:53 10° NNE
Cosmos 2369 Rocket 3.1 18:02:03 10° SSE 18:06:41 27° ESE 18:11:19 10° NE
USA 276 2.2 18:03:51 10° W 18:06:59 75° NNW 18:10:07 10° ENE
USA 186 3.5 18:07:43 10° E 18:09:27 14° ENE 18:11:14 10° NNE
Cosmos 2181 Rocket 4.3 18:03:37 10° NNW 18:09:49 78° W 18:16:04 10° S
Cosmos 1975 2.8 18:06:11 10° S 18:10:09 89° ESE 18:14:10 10° N
DMSP B5D2-2 4.5 18:05:43 10° NNE 18:10:43 41° E 18:15:41 10° SSE
ERBS 4.4 18:09:21 10° WNW 18:12:01 22° NNW 18:14:40 10° NE
Meteor 2-12 Rocket 4.4 18:06:18 10° S 18:12:22 70° E 18:18:26 10° NNE
USA 215 3.4 18:06:04 10° ESE 18:12:33 67° NNE 18:19:04 10° NW
Feng Yun 1-1 Rocket 4.3 18:07:40 10° SSE 18:13:03 85° WSW 18:18:31 10° NNW
Okean O Rocket 2.9 18:08:55 10° S 18:13:07 46° W 18:17:20 10° NNW
CZ-4 R/B 1.2 18:09:34 10° SSE 18:13:23 77° ENE 18:17:15 10° N
Cosmos 1315 Rocket 4.5 18:11:33 10° ESE 18:13:47 15° E 18:16:03 10° NE
Okean 2 3.4 18:11:19 10° N 18:15:25 89° W 18:19:29 10° S
Cosmos 2297 3.7 18:10:24 10° SSW 18:16:02 69° ESE 18:21:45 10° NNE
CSL-04 Debris 4.4 18:12:40 10° SE 18:17:49 48° ENE 18:23:00 10° N
H-2A R/B 3.3 18:13:07 10° S 18:17:56 44° W 18:22:54 10° NNW
YAOGAN 1 2.5 18:15:07 10° SSE 18:19:26 86° E 18:23:48 10° NNW
Cosmos 1400 Rocket 3.0 18:15:35 10° S 18:19:33 51° E 18:23:29 10° NNE
SJ-6B 4.2 18:17:51 11° ESE 18:20:53 23° ENE 18:24:07 10° NNE
Cosmos 1674 Rocket 3.9 18:19:09 10° NNW 18:23:29 70° W 18:27:46 10° S
Cosmos 1674 3.0 18:20:07 10° N 18:23:40 42° ENE 18:27:14 10° SSE
IRS-1C Rocket 4.1 18:19:07 10° SSE 18:24:21 75° ENE 18:29:37 10° NNW
Cosmos 1805 4.3 18:21:29 10° SE 18:24:35 23° E 18:27:41 10° NE
SJ 16-02 2.4 18:23:16 10° SSE 18:26:50 24° E 18:30:25 10° NE
Cosmos 2184 Rocket 4.0 18:22:41 10° S 18:29:01 78° E 18:35:19 10° NNE
Cosmos 1707 3.1 18:27:09 10° NNW 18:31:03 69° W 18:34:55 10° S
HJ-1C 3.4 18:28:02 10° S 18:31:19 80° W 18:34:36 10° NNW
COSMO-SKYMED 1 4.1 18:27:53 10° N 18:31:57 40° WNW 18:36:00 10° SW
Lacrosse 4 Rocket 4.1 18:29:35 10° WNW 18:32:08 16° NW 18:34:41 10° N
Cosmos 1656 Rocket 4.3 18:30:10 10° SSE 18:34:57 30° ESE 18:39:42 10° NE
Helios 1A Rocket 4.2 18:38:42 19° E 18:40:05 22° ENE 18:43:17 10° NNE
Cosmos 1626 2.5 18:36:43 10° N 18:40:17 42° ENE 18:43:01 15° SE
Cosmos 1610 Rocket 4.5 18:34:30 10° S 18:40:39 65° E 18:46:45 10° NNE
NOSS 3-2 (A) 4.4 18:38:36 10° SSE 18:42:28 20° ESE 18:44:54 15° ENE
KORONAS-FOTON 3.6 18:39:20 10° N 18:43:08 77° E 18:46:54 10° SSE
OBJECT-B 1.2 18:43:09 23° SE 18:44:41 39° ENE 18:47:40 10° N
Cosmos 158 Rocket 4.5 18:40:07 10° N 18:44:51 38° ENE 18:47:40 21° ESE
Meteor 2-5 Rocket 4.5 18:41:11 10° N 18:46:06 31° ENE 18:48:58 20° ESE
Cosmos 2154 Rocket 4.0 18:41:59 10° S 18:48:19 77° E 18:54:41 10° NNE
Geosat 3.9 18:43:28 10° NNE 18:48:32 82° ESE 18:53:33 10° SSW
Cosmos 1503 Rocket 4.3 18:44:40 10° SSW 18:49:51 70° WNW 18:55:02 10° NNE
MetOp-A 4.1 18:45:04 10° SSE 18:50:25 84° ENE 18:55:48 10° NNW
Sich 1 Rocket 4.5 18:48:32 18° SE 18:50:57 29° E 18:54:50 10° NNE
Atlas Centaur 2 4.4 18:45:35 10° SW 18:51:39 22° S 18:56:05 15° SE
Cosmos 1766 4.1 18:50:31 25° ESE 18:51:40 29° E 18:55:05 10° NNE
Cosmos 1184 Rocket 2.9 18:48:41 10° N 18:51:50 49° ENE 18:53:05 29° SE
H-2A R/B 2.4 18:48:31 10° N 18:52:43 64° WNW 18:56:48 10° SSW
Cosmos 1733 3.5 18:49:43 10° SSE 18:53:17 41° E 18:56:55 10° NNE
USA 305 3.9 18:49:41 10° WNW 18:53:39 37° N 18:56:04 20° ENE
SL-8 Rocket 4.5 18:50:56 10° SSE 18:56:36 38° E 19:02:20 10° NNE
Cosmos 1782 Rocket 3.5 18:52:43 10° S 18:57:08 70° E 19:01:33 10° NNE
Meteor 1-12 Rocket 4.3 18:53:41 10° S 18:59:39 68° E 19:05:35 10° NNE
Cosmos 1777 Rocket 3.9 18:54:32 10° S 18:59:44 68° ESE 19:04:56 10° NNE
Nadezhda 3 Rocket 4.0 18:55:12 10° N 19:01:22 82° W 19:07:32 10° S
PSLV R/B 3.8 18:57:39 10° NNE 19:01:49 64° ESE 19:05:53 10° S
COSMOS 2455 4.0 18:58:21 10° NW 19:03:58 41° WSW 19:09:34 10° S
ISS -2.8 19:00:56 10° WNW 19:04:10 41° N 19:05:32 27° NE
CSL-04 Rocket 3.7 18:59:37 10° SSE 19:04:59 80° WSW 19:10:28 10° NNW
Cosmos 1346 Rocket 2.8 19:00:58 10° NNW 19:05:00 84° W 19:08:39 12° S
USA 307 3.8 19:04:25 10° WNW 19:08:26 39° N 19:10:15 26° ENE
Cosmos 1025 Rocket 3.0 19:07:48 10° N 19:12:07 58° ENE 19:13:45 34° SE
Okean-O 3.9 19:13:40 10° S 19:17:51 41° W 19:22:04 10° NNW
USA 306 3.6 19:17:43 10° WNW 19:21:47 43° NNE 19:22:58 34° NE
Cosmos 1680 Rocket 4.2 19:18:15 10° N 19:23:06 36° ENE 19:23:57 34° ENE
Cosmos 1975 Rocket 3.4 19:19:37 10° NNW 19:24:02 66° W 19:27:53 13° S
SeaSat 1 2.4 19:22:15 29° SSE 19:24:48 85° WSW 19:29:47 10° NNW
USA 281 4.0 19:20:37 10° NE 19:25:02 28° E 19:25:02 28° E
Landsat 7 4.3 19:27:02 38° ENE 19:27:17 39° ENE 19:31:42 10° N
Cosmos 2297 Rocket 3.9 19:23:48 10° N 19:27:32 18° NE 19:28:42 17° NE
USA 308 3.6 19:23:48 10° WNW 19:27:53 43° NNE 19:28:52 37° NE
SPOT 1/Viking Rocket 4.5 19:28:09 29° ENE 19:28:15 29° ENE 19:32:40 10° N
ATLAS CENTAUR R/B 3.8 19:26:57 10° WNW 19:30:42 24° WSW 19:34:30 10° SSW
Cosmos 1300 Rocket 3.4 19:29:52 27° S 19:32:15 76° E 19:36:38 10° NNE
Resurs 01 Rocket 2.2 19:33:41 41° ENE 19:33:41 41° ENE 19:37:33 10° N
CZ-4B R/B 3.5 19:33:50 10° N 19:36:27 26° WNW 19:39:05 10° SW
IGS 5A 3.8 19:37:05 49° NE 19:37:05 49° NE 19:40:43 10° N
Meteor 1-24 Rocket 3.6 19:31:32 10° N 19:36:52 63° ENE 19:38:11 48° SE
Cosmos 1441 Rocket 3.2 19:34:13 10° N 19:37:35 65° NNE 19:37:35 65° NNE
Cosmos 1943 Rocket 3.7 19:33:09 10° WSW 19:38:16 36° NW 19:43:28 10° NNE
Lacrosse 5 rocket 3.2 19:34:28 10° WNW 19:38:17 27° SW 19:40:05 20° SSW
Cosmos 2341 Rocket 4.0 19:31:57 10° S 19:38:17 90° NE 19:44:43 10° N
Cosmos 2366 rocket 3.9 19:35:45 22° SSE 19:39:42 63° E 19:45:47 10° NNE
USA 186 3.3 19:39:12 28° WSW 19:39:51 31° W 19:42:40 10° NNW
Resurs 1-3 3.5 19:39:52 61° SSE 19:40:36 85° ENE 19:45:01 10° NNW
Cosmos 2112 Rocket 4.4 19:36:37 10° NNW 19:41:38 43° ENE 19:41:52 42° ENE
SL-27 R/B 3.6 19:38:23 10° NNW 19:40:24 32° N 19:40:24 32° N
Cosmos 1241 Rocket 4.4 19:37:00 10° NNW 19:43:18 68° NE 19:44:59 48° ESE
USA 276 3.3 19:40:14 10° WNW 19:42:32 40° NW 19:42:32 40° NW
Cosmos 1833 4.3 19:40:09 10° NNW 19:45:47 72° WSW 19:47:57 38° S
Cosmos 2218 Rocket 3.8 19:45:03 20° S 19:49:26 76° E 19:55:39 10° NNE
Cosmos 1315 Rocket 3.6 19:46:00 10° SSW 19:49:52 51° WNW 19:53:50 10° N
Cosmos 2227 Rocket 3.9 19:46:01 10° N 19:49:59 19° NE 19:50:29 19° NE
APEX 3.5 19:45:30 10° NNW 19:50:21 71° WSW 19:50:35 69° SW
Cosmos 2369 Rocket 2.9 19:44:49 10° SW 19:50:22 55° WNW 19:55:55 10° NNE
SJ-6B 4.2 19:53:28 25° SSW 19:55:18 38° W 19:59:10 10° NNW
USA 215 3.8 19:52:49 30° S 19:55:45 49° SW 20:02:06 10° WNW
SL-14 R/B 4.3 19:52:32 10° NNW 19:56:19 43° W 19:57:12 37° SW
MOS 1 4.3 19:54:16 40° S 19:56:24 79° WSW 20:02:08 10° NNW
Ariane Rocket 2.9 19:56:37 63° S 19:57:29 87° WSW 20:02:37 10° NNW
IRS-1A Rocket 4.4 19:59:04 41° S 20:01:13 77° WSW 20:07:09 10° NNW
EO 1 Delta rocket 4.4 20:02:47 41° SSW 20:04:22 62° W 20:09:53 10° NNW
SJ 16-02 2.7 20:01:03 10° SW 20:05:12 39° WNW 20:09:24 10° N
CENTAUR R/B 4.0 19:59:48 10° SSW 20:09:38 23° NE 20:12:16 10° NE
Cosmos 1959 Rocket 4.5 20:01:18 19° S 20:06:02 86° W 20:12:22 10° N
MetOp-B 4.2 20:07:33 62° NE 20:07:33 62° NE 20:12:32 10° N
Cosmos 864 Rocket 4.4 20:03:58 24° S 20:08:00 85° W 20:14:15 10° N
Helios 1A Rocket 4.1 20:14:54 38° WSW 20:15:01 38° W 20:18:52 10° NNW
OBJECT-B 3.8 20:16:03 11° WSW 20:16:58 12° W 20:18:22 10° WNW
Okean 2 Rocket 3.7 20:18:26 53° WNW 20:18:26 53° WNW 20:22:34 10° N
Cosmos 2219 4.5 20:19:14 10° NNW 20:23:23 28° NE 20:23:23 28° NE
SPOT 3 Rocket 3.8 20:32:06 64° NW 20:32:06 64° NW 20:36:32 10° NNW
NOSS 3-2 (A) 3.3 20:26:42 10° SW 20:32:18 82° NW 20:38:53 10° NE
SPOT 5 4.2 20:34:13 34° NNE 20:34:13 34° NNE 20:37:31 10° N
USA 305 4.5 20:29:40 10° WNW 20:32:05 33° WNW 20:32:05 33° WNW
Cosmos 1821 Rocket 4.1 20:36:26 64° NE 20:36:26 64° NE 20:41:52 10° NNE
ISS -0.5 20:38:00 10° WNW 20:38:31 14° WNW 20:38:31 14° WNW
Terra 3.8 20:46:31 21° NNE 20:46:31 21° NNE 20:48:20 10° N
BREEZE-M R/B 4.5 20:47:52 10° WNW 20:49:18 26° W 20:49:18 26° W
Resurs 01 Rocket 4.0 21:11:15 20° WNW 21:11:15 20° WNW 21:13:34 10° NW
USA 281 3.5 21:04:41 10° NNE 21:11:10 62° WNW 21:11:50 59° W
Cosmos 2297 Rocket 3.3 21:06:56 10° NNW 21:10:29 39° NNW 21:10:29 39° NNW
Cosmos 2227 Rocket 3.7 21:29:16 10° NNW 21:32:18 33° NNW 21:32:18 33° NNW
Cosmos 2263 Rocket 4.3 21:46:17 10° N 21:48:36 20° N 21:48:36 20° N
CENTAUR R/B 3.6 21:56:39 42° NNW 21:56:39 42° NNW 22:03:27 10° NE
